EW8626 Weather Reports


time (UTC)temp
C
wind
direction
speed
KPH
gust
KPH
rain 1hr
cm
rain 24hr
cm
rain mn
cm
humidity
%
barometer
mb
20260902194533 33 276 1.6 6.4 0.00 0.00 0.00 56 1011.2
20260902193015 33 150 0.0 6.4 0.00 0.00 0.00 58 1011.4
20260902191515 33 157 0.0 9.7 0.00 0.00 0.00 57 1011.6
20260902190013 34 201 0.0 0.0 0.00 0.00 0.00 56 1011.8
20260902184512 33 185 0.0 8.0 0.00 0.00 0.00 58 1011.8
20260902183010 33 156 1.6 6.4 0.00 0.00 0.00 56 1011.8
20260902181509 33 170 0.0 1.6 0.00 0.00 0.00 57 1011.9
20260902180007 33 175 0.0 8.0 0.00 0.00 0.00 59 1012.2
20260902174503 32 140 0.0 1.6 0.00 0.00 0.00 62 1012.2
20260902173002 32 281 0.0 8.0 0.00 0.00 0.00 61 1012.5
20260902171603 32 237 0.0 11.3 0.00 0.00 0.00 65 1012.5
20260902170057 32 283 0.0 11.3 0.00 0.00 0.00 62 1012.7
20260902164557 31 317 0.0 6.4 0.00 0.00 0.00 65 1012.7
20260902163052 31 257 0.0 0.0 0.00 0.00 0.00 64 1012.9
20260902161553 31 266 0.0 0.0 0.00 0.00 0.00 65 1012.8
20260902154544 30 262 1.6 6.4 0.00 0.00 0.00 70 1012.9
20260902153045 30 184 0.0 3.2 0.00 0.00 0.00 69 1013.0
20260902151546 30 287 0.0 0.0 0.00 0.00 0.00 71 1013.0
20260902150036 29 303 0.0 0.0 0.00 0.00 0.00 74 1013.0
20260902144534 28 302 0.0 1.6 0.00 0.00 0.00 73 1013.1
20260902143031 28 272 0.0 0.0 0.00 0.00 0.00 75 1013.0
20260902141535 27 262 0.0 0.0 0.00 0.00 0.00 76 1012.9
20260902140023 27 233 1.6 9.7 0.00 0.00 0.00 78 1013.0
20260902134529 27 241 0.0 0.0 0.00 0.00 0.00 80 1013.0
20260902133017 26 247 0.0 0.0 0.00 0.00 0.00 80 1013.0
20260902131514 26 257 0.0 0.0 0.00 0.00 0.00 82 1013.1
20260902130012 25 257 0.0 0.0 0.00 0.00 0.00 83 1013.1
20260902124514 25 257 0.0 0.0 0.00 0.00 0.00 83 1013.0
20260902123109 25 262 0.0 0.0 0.00 0.00 0.00 84 1012.9
20260902121509 24 220 0.0 0.0 0.00 0.00 0.00 84 1012.8
20260902120006 24 217 0.0 0.0 0.00 0.00 0.00 84 1012.7
20260902114510 23 203 0.0 0.0 0.00 0.00 0.00 84 1012.6
20260902113004 23 199 0.0 0.0 0.00 0.00 0.00 85 1012.4
20260902111503 23 199 0.0 0.0 0.00 0.00 0.00 85 1012.3
20260902110008 23 197 0.0 0.0 0.00 0.00 0.00 84 1012.3
20260902104505 23 196 0.0 0.0 0.00 0.00 0.00 84 1012.1
20260902103001 23 196 0.0 0.0 0.00 0.00 0.00 84 1012.2
20260902101605 23 196 0.0 0.0 0.00 0.00 0.00 84 1012.2
20260902100128 23 196 0.0 0.0 0.00 0.00 0.00 83 1012.2
20260902094558 23 197 0.0 0.0 0.00 0.00 0.00 83 1012.0
20260902093117 24 195 0.0 0.0 0.00 0.00 0.00 83 1012.0
20260902091608 24 195 0.0 0.0 0.00 0.00 0.00 82 1012.0
20260902084603 24 196 0.0 0.0 0.00 0.00 0.00 82 1011.8
20260902083104 24 196 0.0 0.0 0.00 0.00 0.00 82 1011.6
20260902081610 24 196 0.0 0.0 0.00 0.00 0.00 83 1011.4
20260902080057 24 196 0.0 0.0 0.00 0.00 0.00 83 1011.4
20260902074550 24 196 0.0 0.0 0.00 0.00 0.00 83 1011.3
20260902073050 24 197 0.0 0.0 0.00 0.00 0.00 83 1011.3
20260902071559 24 196 0.0 0.0 0.00 0.00 0.00 84 1011.4
20260902070047 23 195 0.0 0.0 0.00 0.00 0.00 85 1011.4
20260902064549 23 199 0.0 0.0 0.00 0.00 0.00 87 1011.4
20260902063109 23 199 0.0 0.0 0.00 0.00 0.00 88 1011.6
20260902061552 23 199 0.0 0.0 0.00 0.00 0.00 87 1011.4
20260902060059 23 199 0.0 0.0 0.00 0.00 0.00 86 1011.5
20260902054543 24 199 0.0 0.0 0.00 0.00 0.00 84 1011.5
20260902053041 25 199 0.0 0.0 0.00 0.00 0.00 82 1011.5
20260902051535 25 199 0.0 0.0 0.00 0.00 0.00 82 1011.5
20260902050034 25 199 0.0 0.0 0.00 0.00 0.00 81 1011.6
20260902044541 25 199 0.0 0.0 0.00 0.00 0.00 82 1011.5
20260902043032 25 199 0.0 0.0 0.00 0.00 0.00 81 1011.5
20260902041537 25 199 0.0 0.0 0.00 0.00 0.00 82 1011.5
20260902040031 25 199 0.0 0.0 0.00 0.00 0.00 83 1011.6
20260902034528 25 199 0.0 0.0 0.00 0.00 0.00 84 1011.5
20260902033027 25 199 0.0 0.0 0.00 0.00 0.00 85 1011.5
20260902031536 25 199 0.0 0.0 0.00 0.00 0.00 87 1011.5
20260902030025 25 199 0.0 0.0 0.00 0.00 0.00 88 1011.5
20260902024524 25 199 0.0 0.0 0.00 0.00 0.00 87 1011.5
20260902023024 25 199 0.0 0.0 0.00 0.00 0.00 86 1011.5
20260902021531 25 199 0.0 0.0 0.00 0.00 0.00 85 1011.5
20260902020025 25 199 0.0 0.0 0.00 0.00 0.00 85 1011.5
20260902014542 26 199 0.0 0.0 0.00 0.00 0.00 85 1011.5
20260902011520 26 199 0.0 0.0 0.00 0.00 0.00 82 1011.1
20260902010023 27 199 0.0 0.0 0.00 0.00 0.00 82 1011.0
20260902004524 28 199 0.0 0.0 0.00 0.00 0.00 80 1010.9
20260902003017 29 199 0.0 0.0 0.00 0.00 0.00 77 1010.8
20260902001516 30 199 0.0 0.0 0.00 0.00 0.00 74 1011.0
20260902000020 31 199 0.0 0.0 0.00 0.00 0.00 72 1011.1
20260901234532 32 199 0.0 0.0 0.00 0.00 0.00 67 1011.2
20260901233012 33 199 0.0 0.0 0.00 0.00 0.00 66 1011.3
20260901231508 33 199 0.0 0.0 0.00 0.00 0.00 65 1011.3
20260901230011 33 199 0.0 0.0 0.00 0.00 0.00 59 1011.3
20260901224505 33 199 0.0 0.0 0.00 0.00 0.00 58 1011.2
20260901223009 33 212 0.0 0.0 0.00 0.00 0.00 56 1011.2
20260901221512 33 144 0.0 0.0 0.00 0.00 0.00 56 1011.2
20260901220012 33 144 0.0 0.0 0.00 0.00 0.00 53 1011.2
20260901214503 34 174 0.0 0.0 0.00 0.00 0.00 53 1011.1
20260901213002 34 186 0.0 0.0 0.00 0.00 0.00 53 1011.1
20260901211601 34 123 0.0 3.2 0.00 0.00 0.00 53 1011.1
20260901210059 33 155 0.0 6.4 0.00 0.00 0.00 53 1011.2
20260901204559 33 137 0.0 12.9 0.00 0.00 0.00 55 1011.4
20260901203103 33 172 1.6 9.7 0.00 0.00 0.00 53 1011.5
20260901201557 33 154 0.0 8.0 0.00 0.00 0.00 55 1011.5
20260901200055 33 150 0.0 9.7 0.00 0.00 0.00 56 1011.5